Date,TemperatureHighF,TemperatureAvgF,TemperatureLowF,DewpointHighF,DewpointAvgF,DewpointLowF,HumidityHigh,HumidityAvg,HumidityLow,PressureMaxIn,PressureMinIn,WindSpeedMaxMPH,WindSpeedAvgMPH,GustSpeedMaxMPH,PrecipitationSumIn
2014-1-1,62.4,58.2,54.4,54.1,49.0,45.4,86,72,61,30.29,30.07,15,5,15,0.12
2014-1-2,69.7,64.1,55.8,56.0,52.1,47.5,88,65,61,30.07,29.82,36,4,36,0.48
2014-1-3,55.7,43.5,36.8,52.2,32.2,24.9,88,65,47,30.32,29.97,25,8,25,0.00
2014-1-4,62.2,50.6,38.3,55.3,45.7,32.7,89,84,75,30.28,30.10,16,5,16,0.00
2014-1-5,78.6,63.8,53.0,67.1,55.5,43.5,88,75,64,30.11,29.96,7,1,9,0.00
2014-1-6,68.6,55.7,39.4,63.2,46.0,25.5,89,70,55,30.35,29.92,18,6,23,0.07
2014-1-7,43.9,36.4,29.0,25.9,18.2,12.6,67,48,31,30.48,30.33,26,8,26,0.00
2014-1-8,57.2,44.9,31.4,51.0,38.3,19.8,88,78,60,30.45,30.31,18,7,18,0.00
2014-1-9,66.7,58.9,50.5,58.3,51.4,45.1,89,76,71,30.34,30.21,16,5,16,0.27
2014-1-10,79.7,70.9,65.4,72.1,63.6,56.2,89,78,70,30.22,30.05,11,3,11,0.00
2014-1-11,82.4,70.6,64.5,72.4,62.7,55.9,90,76,62,30.08,29.88,29,6,32,0.76
2014-1-12,66.2,57.9,43.4,60.0,46.7,37.9,91,68,39,30.22,29.98,16,4,16,0.00
2014-1-13,76.8,59.8,42.7,63.8,53.6,39.6,91,81,60,30.19,29.95,21,2,21,0.00
2014-1-14,70.6,63.9,52.5,66.2,59.0,47.7,92,84,71,30.02,29.90,19,3,19,0.85
2014-1-15,63.9,53.6,43.2,51.9,45.3,39.3,92,75,45,30.07,29.93,17,3,17,0.03
2014-1-16,52.9,45.2,35.1,49.2,31.4,21.9,91,61,31,30.18,29.98,20,5,20,0.00
2014-1-17,64.7,48.1,32.3,49.2,40.0,29.1,92,75,48,30.22,30.09,16,3,16,0.00
2014-1-18,54.9,45.9,35.0,49.3,29.9,15.6,91,57,22,30.30,30.09,20,5,20,0.00
2014-1-19,64.0,48.1,32.8,54.5,42.7,29.8,92,82,64,30.22,30.10,19,3,19,0.00
2014-1-20,68.8,51.7,38.6,53.0,43.5,35.3,92,76,45,30.17,30.03,16,2,16,0.01
2014-1-21,71.2,58.2,48.8,61.2,52.6,35.6,92,82,54,30.03,29.78,28,7,28,0.10
2014-1-22,52.2,42.8,34.0,35.5,28.1,21.9,88,58,32,30.21,29.92,18,5,18,0.00
2014-1-23,59.1,43.3,30.3,33.5,29.2,19.8,92,63,31,30.39,30.20,14,2,14,0.00
2014-1-24,52.9,44.2,40.1,34.1,27.3,15.4,75,53,28,30.50,30.31,19,6,19,0.00
2014-1-25,68.0,51.9,39.6,51.4,41.7,33.6,90,71,41,30.33,30.01,17,4,17,0.01
2014-1-26,67.3,57.7,47.4,56.2,51.6,44.0,92,81,63,30.08,29.98,13,2,13,0.00
2014-1-27,74.1,61.5,53.4,64.1,56.2,50.2,92,83,66,30.02,29.92,13,2,16,0.02
2014-1-28,79.2,64.1,51.4,65.5,57.5,47.3,93,80,60,30.06,29.94,21,3,21,0.01
2014-1-29,60.9,44.3,39.7,56.5,42.1,37.6,98,92,85,30.25,29.98,21,7,21,0.54
2014-1-30,45.3,41.2,36.8,43.1,38.9,34.6,92,92,90,30.24,30.12,17,6,17,0.40
2014-1-31,57.7,50.4,42.4,54.5,47.1,39.5,92,88,86,30.17,30.07,16,5,16,0.19
2014-2-1,79.1,65.5,55.6,71.8,60.1,51.2,91,83,75,30.14,30.05,16,3,16,0.00
2014-2-2,80.7,68.5,60.3,70.8,59.5,51.1,87,73,60,30.17,30.05,12,2,12,0.01
2014-2-3,83.3,71.0,61.6,71.3,54.9,34.4,82,58,32,30.12,30.01,15,3,15,0.01
2014-2-4,83.7,69.5,59.3,71.6,45.2,0.1,77,46,6,30.13,30.00,12,2,12,0.02
2014-2-5,82.5,72.0,66.8,72.3,32.3,-36.9,73,34,1,30.06,29.96,26,5,26,0.00
2014-2-6,67.8,55.8,46.7,55.7,35.4,6.6,76,51,15,30.24,30.05,19,6,19,0.32
2014-2-7,52.4,49.4,46.5,6.6,-20.3,-47.0,19,6,1,30.23,30.14,18,6,18,0.08
2014-2-8,53.1,50.8,48.7,-28.2,-46.3,-48.0,3,1,1,30.17,30.07,18,4,18,0.97
2014-2-9,71.0,54.6,41.5,55.1,2.2,-52.4,68,29,1,30.17,30.05,14,3,14,0.00
2014-2-10,46.6,42.8,40.2,-49.2,-51.6,-53.2,1,1,1,30.11,30.08,0,0,0,0.00
2014-2-18,79.3,68.4,45.4,55.4,39.2,-50.0,63,41,1,30.24,30.14,10,2,10,0.00
2014-2-19,82.3,65.9,51.5,61.7,7.3,-46.2,62,24,1,30.20,30.06,16,3,16,0.00
2014-2-20,84.5,66.3,50.4,65.2,-0.4,-46.9,60,21,1,30.16,30.04,24,4,24,0.00
2014-2-21,79.2,67.7,62.8,35.9,-34.8,-39.3,25,1,1,30.06,29.98,19,4,19,0.09
2014-2-22,79.1,67.2,59.6,50.6,-26.6,-41.3,38,4,1,30.11,30.01,17,3,17,0.01
2014-2-23,82.4,62.3,59.1,60.2,-37.0,-41.6,47,2,1,30.08,29.98,12,2,16,0.00
2014-2-24,68.8,61.3,56.6,-35.7,-40.2,-43.1,1,1,1,30.08,29.95,11,1,11,0.00
2014-2-25,79.7,64.5,54.1,62.3,-6.6,-44.6,58,18,1,30.08,29.93,14,2,14,0.02
2014-2-26,60.7,55.8,50.3,-40.7,-43.6,-47.0,1,1,1,29.97,29.74,18,2,18,0.75
2014-2-27,59.1,52.8,42.9,44.6,14.8,-51.5,63,39,1,29.98,29.79,16,3,21,0.03
2014-2-28,69.4,54.2,39.8,46.9,24.7,-53.5,87,41,1,30.14,29.96,14,2,14,0.00
2014-3-1,71.9,56.9,44.0,58.5,48.5,41.0,97,78,35,30.26,30.09,14,3,14,0.01
2014-3-2,78.8,64.3,51.8,58.2,53.6,50.1,98,72,40,30.24,30.06,15,2,15,0.01
2014-3-3,81.2,66.6,53.0,62.5,57.6,51.6,96,75,43,30.07,29.96,25,5,25,0.00
2014-3-4,73.3,63.8,53.8,65.0,60.2,51.7,96,88,70,30.08,29.98,17,4,17,0.01
2014-3-5,58.2,54.3,53.5,54.9,52.4,51.7,95,93,89,30.08,29.99,14,4,14,0.00
2014-3-6,68.8,63.2,56.0,64.7,60.7,54.6,96,92,84,30.07,29.72,14,4,21,0.32
2014-3-7,55.9,51.3,45.5,54.8,48.0,41.9,99,88,75,30.09,29.77,22,6,22,0.00
2014-3-8,71.0,54.7,39.6,54.4,46.4,38.6,97,76,44,30.19,30.06,13,2,13,0.01
2014-3-9,77.3,61.7,47.5,54.1,50.2,46.2,100,70,36,30.22,30.08,16,2,16,0.00
2014-3-10,78.7,63.7,49.7,57.1,52.2,47.9,95,69,37,30.14,29.95,10,2,14,0.00
2014-3-11,80.2,64.5,50.7,61.9,54.4,41.6,100,75,26,30.01,29.82,14,2,14,0.03
2014-3-18,73.3,67.3,59.1,57.6,53.8,50.2,89,64,46,30.07,29.84,13,3,13,0.03
2014-3-19,74.0,59.6,57.3,57.2,55.3,52.6,93,87,48,30.14,30.02,10,3,11,0.00
2014-3-20,79.3,68.0,56.3,61.7,57.5,54.2,98,72,45,30.11,29.96,13,2,13,0.00
2014-3-21,80.7,68.5,55.9,61.4,57.1,51.8,97,70,38,30.11,30.01,15,3,15,0.00
2014-3-22,81.7,71.7,65.8,67.3,60.1,49.7,90,69,38,30.07,29.95,19,5,19,0.01
2014-3-23,79.8,69.7,61.7,68.7,63.8,58.1,94,82,67,30.04,29.93,19,4,19,0.00
2014-3-24,69.2,65.0,60.3,65.7,59.5,54.9,95,83,70,30.09,29.93,18,6,18,0.00
2014-3-25,75.0,63.4,56.2,59.9,50.1,25.2,93,66,27,30.06,29.83,30,8,30,0.01
2014-3-26,62.9,52.1,40.9,39.7,25.7,17.7,71,37,21,30.32,30.06,21,6,21,0.00
2014-3-27,69.9,58.8,47.3,57.9,49.7,38.3,84,72,60,30.34,30.22,19,4,19,0.00
2014-3-28,81.1,70.7,60.7,65.3,61.1,57.1,89,73,49,30.22,30.01,24,6,24,0.01
2014-3-29,72.0,69.1,64.7,70.0,66.5,61.4,97,91,81,30.04,29.86,21,7,28,2.17
2014-3-30,74.0,62.1,51.9,61.7,49.1,38.6,96,66,29,30.10,29.92,21,6,21,0.01
2014-3-31,77.7,61.3,47.8,52.1,45.5,32.5,99,63,23,30.17,30.08,11,1,11,0.00
2014-4-1,81.5,64.1,46.1,57.1,47.2,37.4,96,62,21,30.20,30.10,9,1,12,0.00
2014-4-2,83.0,68.2,51.3,60.6,53.7,47.5,96,65,32,30.20,30.10,13,3,13,0.00
2014-4-3,85.2,70.4,57.0,63.5,58.8,53.1,97,70,36,30.15,30.02,15,3,15,0.00
2014-4-4,84.3,70.8,59.3,67.4,62.6,58.1,98,78,46,30.07,29.98,18,4,18,0.00
2014-4-5,83.2,71.9,64.6,70.5,64.3,61.6,98,79,52,30.06,29.95,12,2,12,0.00
2014-4-6,86.5,74.9,66.1,67.1,63.0,57.4,93,69,39,30.05,29.92,18,3,18,0.00
2014-4-7,90.0,76.8,67.0,69.4,65.9,62.8,96,72,43,29.94,29.80,25,7,25,0.00
2014-4-8,77.6,70.0,60.9,71.3,64.1,51.5,94,82,69,29.86,29.71,25,7,25,0.18
2014-4-9,74.0,63.8,54.5,54.3,51.1,44.2,92,66,37,30.18,29.86,18,4,18,0.02
2014-4-10,77.9,65.3,49.6,58.5,52.0,44.0,97,67,35,30.30,30.17,17,2,17,0.00
2014-4-11,81.8,68.3,53.6,63.2,58.4,52.5,96,73,41,30.27,30.12,18,3,18,0.00
2014-4-12,82.8,71.2,60.8,66.2,59.0,51.3,95,69,36,30.21,30.09,17,4,17,0.00
2014-4-13,83.7,71.7,58.4,66.2,60.7,56.8,96,71,44,30.15,30.01,20,5,20,0.00
2014-4-14,86.8,75.2,67.4,70.5,64.6,56.0,91,72,38,30.05,29.87,18,4,18,0.00
2014-4-15,83.5,71.8,59.4,74.4,66.1,52.8,94,83,58,30.00,29.77,28,7,28,1.02
2014-4-16,73.8,59.6,45.7,58.1,50.8,40.1,87,74,54,30.18,30.00,26,9,26,0.00
2014-4-17,77.3,66.9,56.0,65.7,59.7,53.3,95,79,59,30.23,30.13,22,7,22,0.00
2014-4-18,77.8,69.5,65.6,72.0,66.2,61.3,96,89,77,30.16,29.91,34,5,34,0.23
2014-4-19,71.2,66.5,61.6,67.4,62.8,58.3,97,88,75,29.99,29.85,20,6,20,0.01
2014-4-20,68.0,62.5,59.7,60.2,58.4,56.9,96,87,73,30.11,29.96,15,5,16,0.00
2014-4-21,70.5,64.4,60.2,61.6,58.8,56.5,95,82,71,30.10,29.98,14,3,14,0.00
2014-4-22,79.0,66.8,54.4,64.5,59.3,53.6,100,79,52,29.99,29.84,14,3,18,0.00
2014-4-23,84.0,70.5,58.8,66.0,62.3,57.8,98,78,48,29.95,29.85,15,3,15,0.00
2014-4-24,85.5,72.8,61.5,69.3,64.2,60.3,98,77,47,30.02,29.91,16,2,16,0.00
2014-4-25,85.8,73.5,62.2,68.5,64.5,59.6,98,76,43,30.01,29.92,20,4,20,0.00
2014-4-26,86.1,75.1,63.8,71.3,65.9,61.4,98,76,44,30.03,29.93,16,2,16,0.00
2014-4-27,89.3,76.7,63.2,73.0,66.1,62.0,96,73,45,30.01,29.90,16,3,16,0.00
2014-4-28,92.0,78.7,67.4,69.5,65.8,62.0,95,68,40,29.97,29.85,20,4,20,0.00
2014-4-29,89.8,76.2,69.3,73.7,69.7,64.5,95,82,46,30.00,29.85,19,5,19,0.19
2014-4-30,86.3,74.6,69.3,75.3,70.3,66.6,97,87,65,30.06,29.93,33,4,33,0.30
2014-5-1,87.0,76.4,69.5,75.3,69.8,66.4,95,81,59,30.02,29.93,23,5,23,0.32
2014-5-2,73.1,70.4,67.0,70.6,68.5,64.9,98,94,85,29.97,29.88,14,2,14,0.37
2014-5-3,69.7,64.7,58.5,69.1,63.5,57.9,98,96,90,30.06,29.88,17,3,17,1.06
2014-5-4,83.5,68.9,52.8,60.5,55.7,49.8,99,68,33,30.10,30.00,17,2,17,0.00
2014-5-5,88.7,73.6,58.2,62.9,58.4,52.0,98,64,30,30.08,29.96,13,2,13,0.00
2014-5-6,87.8,74.6,59.2,65.1,58.5,48.4,95,62,28,30.05,29.96,13,2,13,0.00
2014-5-7,88.8,77.1,62.3,70.8,62.8,57.4,95,65,35,30.14,30.02,18,5,18,0.00
2014-5-8,89.5,79.4,67.8,71.9,66.3,58.0,96,68,36,30.20,30.10,17,6,17,0.00
2014-5-9,88.3,79.6,70.9,71.3,67.7,62.5,96,70,44,30.19,30.06,20,6,20,0.00
2014-5-10,88.3,79.5,72.1,71.7,68.8,63.4,94,72,46,30.14,30.03,24,5,24,0.00
2014-5-11,87.5,79.5,73.1,72.9,70.6,66.7,89,76,53,30.15,30.04,19,4,19,0.05
2014-5-12,87.5,77.1,65.9,72.5,67.4,61.5,97,75,44,30.17,30.07,20,4,20,0.01
2014-5-13,88.2,77.7,68.0,72.2,68.8,66.2,97,76,51,30.10,30.01,19,5,19,0.00
2014-5-14,88.2,78.5,71.7,74.7,71.7,69.9,96,81,57,30.08,29.92,23,6,23,0.13
2014-5-15,85.2,77.5,72.1,76.9,72.1,67.9,96,84,65,30.01,29.86,20,7,20,0.06
2014-5-16,80.2,69.3,57.5,68.1,52.2,43.9,86,58,30,30.12,29.97,21,7,21,0.00
2014-5-17,82.3,68.8,55.9,54.0,50.4,44.9,86,55,29,30.19,30.10,20,4,20,0.00
2014-5-18,85.0,70.4,53.8,61.8,56.1,50.3,93,64,34,30.18,30.10,17,4,17,0.00
2014-5-19,88.0,73.5,59.1,66.5,60.2,50.6,96,67,29,30.19,30.11,15,3,15,0.00
2014-5-20,85.9,74.1,63.4,68.5,61.0,52.9,96,67,40,30.23,30.15,19,4,19,0.05
2014-5-21,87.7,73.6,57.3,64.4,58.3,49.4,94,63,33,30.20,30.09,12,2,12,0.00
2014-5-22,92.3,77.9,64.6,71.4,66.1,62.2,92,69,41,30.16,30.02,15,4,18,0.00
2014-5-23,94.0,80.2,67.8,72.2,68.2,64.0,95,70,39,30.09,29.98,16,4,16,0.00
2014-5-24,94.2,82.5,71.1,74.6,69.5,64.6,97,69,39,30.08,29.98,10,2,12,0.02
2014-5-25,92.2,79.9,72.9,75.8,69.9,57.8,93,73,44,30.13,30.01,27,3,27,0.04
2014-5-26,90.3,77.3,70.9,75.1,70.4,61.8,98,82,43,30.19,30.08,32,3,32,0.15
2014-5-27,87.0,77.7,68.4,74.2,69.4,63.3,98,78,46,30.16,30.03,15,3,15,0.03
2014-5-28,88.4,77.6,68.9,72.9,69.1,61.8,97,77,46,30.09,29.98,18,2,18,0.00
2014-5-29,91.1,78.0,70.1,74.1,69.5,56.1,96,78,32,30.05,29.92,14,4,21,0.38
2014-5-30,88.1,75.9,67.7,74.2,70.2,66.7,97,84,55,30.03,29.96,28,3,28,0.32
2014-5-31,85.5,76.4,70.6,75.1,71.9,69.4,97,86,67,30.05,29.98,17,2,17,0.05
2014-6-1,85.9,76.3,70.8,74.9,72.1,69.9,97,88,63,30.10,30.02,20,4,20,0.45
2014-6-2,83.8,76.4,70.8,71.2,68.0,64.0,95,76,56,30.13,30.05,22,5,22,0.00
2014-6-3,82.5,74.9,66.3,69.3,66.2,63.6,91,75,56,30.10,29.99,17,3,17,0.01
2014-6-4,86.2,76.8,65.6,69.3,65.0,60.1,96,70,44,30.02,29.90,13,2,14,0.00
2014-6-5,89.8,78.3,66.4,71.7,66.7,63.5,92,69,44,29.97,29.87,12,3,12,0.00
2014-6-6,91.0,80.2,69.9,72.6,69.1,64.2,93,71,43,30.00,29.89,16,4,16,0.00
2014-6-7,91.7,79.6,72.4,74.1,70.2,67.4,94,75,48,30.02,29.81,27,4,27,0.07
2014-6-8,91.8,77.6,71.5,76.4,72.1,68.4,96,85,54,30.02,29.88,24,2,24,0.72
2014-6-9,91.3,77.3,68.4,78.4,71.5,66.5,98,84,52,29.99,29.89,20,2,20,0.05
2014-6-10,93.2,77.6,70.3,76.0,71.2,65.3,97,83,47,30.05,29.92,27,2,27,0.25
2014-6-11,84.2,73.4,70.0,75.8,70.6,67.0,96,91,73,30.00,29.91,29,3,29,0.57
2014-6-12,85.3,74.8,70.3,75.3,71.5,68.4,96,90,69,30.02,29.91,20,4,20,0.45
2014-6-13,83.8,76.6,71.0,76.0,72.2,68.2,98,87,68,30.01,29.92,20,4,20,0.04
2014-6-14,87.5,78.2,72.5,75.8,72.4,70.9,96,83,59,30.08,29.96,17,4,17,0.01
2014-6-15,90.8,77.5,68.9,74.1,69.4,59.6,96,78,49,30.13,30.04,44,3,44,0.20
2014-6-16,89.8,77.9,68.5,75.7,70.4,64.9,97,79,47,30.17,30.07,24,2,24,0.01
2014-6-17,89.3,79.0,69.4,76.0,70.6,67.4,97,77,51,30.17,30.06,20,3,20,0.15
2014-6-18,88.8,78.4,69.6,74.2,70.7,68.0,96,79,51,30.14,30.06,23,3,23,0.01
2014-6-19,89.3,80.5,69.8,76.8,71.8,68.7,97,76,53,30.14,30.04,13,2,13,0.00
2014-6-20,93.0,79.6,70.7,75.9,71.6,67.2,96,79,47,30.08,29.92,27,4,27,2.95
2014-6-21,87.7,78.1,70.2,78.3,73.3,67.2,97,86,66,30.03,29.89,30,4,30,0.40
2014-6-22,86.8,78.3,72.2,78.7,73.2,68.3,96,85,69,29.98,29.90,21,4,21,0.21
2014-6-23,89.9,77.2,70.9,76.9,72.6,69.3,96,87,57,30.08,29.94,22,2,22,0.42
2014-6-24,90.0,81.3,73.2,78.1,73.6,71.5,96,79,56,30.13,30.04,17,2,17,0.00
2014-6-25,91.3,82.0,72.8,77.2,73.5,68.8,98,77,51,30.14,30.00,13,2,13,0.01
2014-6-26,94.0,82.0,74.2,78.2,73.3,69.3,95,77,50,30.11,29.95,18,3,18,0.00
2014-6-27,95.5,82.5,73.6,78.5,72.6,67.5,93,74,42,30.11,30.01,21,4,21,0.00
2014-6-28,95.8,82.6,72.8,76.2,72.1,66.0,95,73,40,30.14,30.06,19,3,19,0.00
2014-6-29,95.4,83.1,74.9,77.3,73.0,69.2,92,74,44,30.14,30.02,20,4,21,0.03
2014-6-30,94.0,83.2,73.8,77.4,72.7,61.9,95,73,37,30.07,29.92,21,5,21,0.00
2014-7-1,93.9,82.7,73.5,76.8,72.9,69.2,97,75,45,29.96,29.85,16,4,20,0.00
2014-7-2,89.5,80.2,74.3,76.6,73.5,71.1,96,81,57,29.93,29.86,15,3,15,0.59
2014-7-3,92.3,78.9,72.8,79.3,73.7,68.8,96,85,56,30.09,29.92,32,3,32,0.59
2014-7-4,87.8,78.5,72.2,79.0,74.1,71.0,97,87,67,30.10,30.01,14,3,14,0.06
2014-7-5,90.0,78.6,71.9,77.4,73.6,70.2,96,85,62,30.15,30.04,17,2,17,0.07
2014-7-6,88.0,76.3,71.0,78.2,72.8,69.8,98,90,64,30.09,30.01,22,2,22,0.77
2014-7-7,88.4,78.7,70.8,76.8,73.1,69.8,98,84,58,30.12,30.03,14,3,14,0.01
2014-7-8,90.2,79.0,72.6,77.2,73.4,68.7,98,84,59,30.14,30.05,24,2,24,0.13
2014-7-9,86.9,77.9,71.7,78.5,74.4,70.8,98,89,71,30.13,30.04,15,2,15,0.26
2014-7-10,88.3,79.2,72.8,77.8,73.6,70.8,96,84,59,30.12,30.03,19,3,19,0.16
2014-7-11,90.5,78.2,71.4,77.8,73.2,70.5,98,86,58,30.15,30.03,21,3,21,0.64
2014-7-12,91.2,78.2,72.3,78.1,73.7,68.2,97,88,49,30.15,30.08,29,2,29,1.54
2014-7-13,90.2,79.8,73.5,78.9,74.5,71.2,99,85,58,30.13,30.04,14,2,14,0.01
2014-7-14,93.2,79.6,74.6,78.3,74.3,71.2,97,85,52,30.09,30.00,22,2,22,0.04
2014-7-15,88.3,78.2,73.5,78.0,73.8,70.3,95,87,63,30.03,29.92,25,3,25,0.37
2014-7-16,82.2,76.4,73.2,77.6,74.0,71.5,96,92,81,29.98,29.87,24,4,24,0.31
2014-7-17,90.5,80.7,72.9,77.4,73.5,68.5,97,80,50,30.02,29.90,24,2,24,0.21
2014-7-18,91.7,82.0,71.4,75.2,71.5,65.8,98,74,45,30.08,30.00,15,2,15,0.00
2014-7-19,92.3,83.0,75.8,77.7,74.4,68.0,96,77,48,30.08,30.00,15,3,15,0.00
2014-7-20,92.7,82.8,75.7,78.0,75.0,71.8,96,79,53,30.08,29.99,18,4,18,0.00
2014-7-21,91.7,80.8,74.7,79.3,73.7,69.0,95,81,51,30.07,29.97,19,2,19,0.40
2014-7-22,75.2,73.3,71.9,74.0,72.1,71.0,97,96,95,30.06,30.00,5,1,5,0.00
2014-7-23,91.1,80.8,74.1,77.4,74.7,72.6,96,82,56,30.08,29.99,13,1,19,0.11
2014-7-24,92.5,83.2,75.1,78.0,75.2,69.8,97,78,48,30.04,29.95,17,2,17,0.00
2014-7-25,91.2,81.0,73.3,78.4,75.0,69.8,95,83,61,30.07,29.99,24,3,24,1.21
2014-7-26,92.6,82.9,74.8,80.3,75.0,69.8,96,79,51,30.09,30.01,18,4,18,0.01
2014-7-27,92.2,83.4,76.9,79.6,75.9,72.5,95,79,57,30.08,30.00,22,3,22,0.05
2014-7-28,92.3,83.5,77.2,80.8,76.7,74.9,94,81,61,30.04,29.92,25,5,25,0.51
2014-7-29,92.3,84.1,79.0,81.2,76.9,73.2,93,80,60,29.96,29.88,26,5,26,0.06
2014-7-30,92.2,81.7,69.8,74.7,67.4,60.9,95,66,36,29.98,29.91,11,3,16,0.00
2014-7-31,92.4,81.4,70.9,77.7,69.6,66.2,88,69,45,29.99,29.91,14,2,14,0.00
2014-8-1,92.0,81.7,71.2,74.6,69.6,66.8,90,68,47,29.99,29.91,12,2,12,0.00
2014-8-2,90.5,79.8,74.7,78.2,73.9,70.4,94,83,62,29.99,29.93,12,1,12,0.00
2014-8-9,86.3,78.0,75.1,78.2,74.9,73.3,95,91,76,30.02,29.95,9,4,21,0.52
2014-8-10,79.7,76.3,74.0,76.2,74.4,71.8,96,94,86,30.01,29.93,8,2,17,0.67
2014-8-11,91.5,82.2,73.6,78.4,75.1,72.4,97,80,59,30.00,29.94,8,4,21,0.00
2014-8-12,88.8,81.1,76.2,79.0,76.4,73.4,96,86,69,30.02,29.94,8,3,26,0.28
2014-8-15,82.6,76.7,74.0,77.3,74.0,72.3,95,92,84,30.02,29.96,15,3,15,0.01
2014-8-16,87.7,78.2,71.1,79.1,74.8,70.2,98,90,69,30.07,29.99,14,2,18,0.17
2014-8-17,92.3,82.4,74.8,79.9,75.3,71.9,98,81,54,30.10,30.01,18,2,18,0.18
2014-8-18,94.1,83.1,74.6,79.2,75.3,72.7,98,79,52,30.06,29.95,23,3,23,0.00
2014-8-19,94.1,83.7,75.4,78.8,74.2,67.8,96,75,45,30.03,29.94,18,4,18,0.08
2014-8-20,94.5,84.0,74.5,78.6,75.1,70.2,97,77,48,30.08,29.97,18,3,18,0.00
2014-8-21,95.5,82.5,76.0,79.8,74.8,71.1,96,79,48,30.12,30.00,29,2,29,0.42
2014-8-22,94.7,80.5,73.8,77.3,73.1,68.8,95,80,46,30.08,29.96,42,2,42,0.35
2014-8-23,95.8,81.5,72.5,80.0,74.4,70.9,97,81,51,29.99,29.84,24,2,24,0.25
2014-8-24,96.8,81.5,74.7,81.3,75.2,69.1,95,83,45,29.89,29.76,35,3,35,0.18
2014-8-25,87.2,79.7,75.7,78.7,74.9,72.7,96,86,65,29.89,29.81,26,8,26,0.10
2014-8-26,91.3,80.8,72.8,76.1,72.4,68.6,97,78,49,29.97,29.86,22,6,22,0.02
2014-8-27,91.5,81.4,73.4,73.4,70.8,63.8,94,72,44,30.01,29.92,17,4,17,0.00
2014-8-28,93.0,80.6,69.3,76.4,71.4,66.9,96,76,47,30.01,29.92,16,2,16,0.00
2014-8-29,91.0,79.8,75.5,79.3,75.8,73.2,96,88,62,30.10,29.98,18,3,18,0.47
2014-8-30,92.6,81.3,73.7,77.4,74.0,68.9,98,81,51,30.14,30.02,26,2,26,0.06
2014-8-31,92.9,82.0,73.5,78.8,74.4,70.7,96,80,51,30.14,30.04,16,2,16,0.01
2014-9-1,93.3,84.9,75.0,77.6,74.1,68.6,96,72,46,30.12,30.00,14,2,14,0.00
2014-9-2,92.8,84.1,75.0,77.9,73.9,69.3,96,73,48,30.10,29.95,12,3,12,0.02
2014-9-3,91.9,82.0,75.9,77.8,73.0,0.0,93,77,49,30.06,29.95,15,3,20,0.00
2014-9-4,91.4,79.2,72.9,76.9,73.2,67.6,97,83,51,30.10,30.00,14,2,20,0.32
2014-9-5,87.1,76.3,73.4,77.9,73.6,71.5,97,92,67,30.12,30.04,15,2,17,0.48
2014-9-6,88.0,78.3,72.9,75.9,73.0,71.5,97,85,61,30.08,29.94,14,3,16,0.00
2014-9-7,87.3,77.0,73.7,76.9,73.3,71.4,96,89,67,30.02,29.94,15,3,20,0.27
2014-9-8,87.9,78.0,73.9,77.5,73.4,71.4,94,86,68,30.07,29.98,12,2,14,0.08
2014-9-9,87.0,77.5,73.9,77.7,74.5,73.0,97,91,68,30.08,30.01,7,1,8,0.04
2014-9-10,91.4,83.0,71.1,77.5,73.6,69.8,98,75,54,30.05,29.94,17,3,17,0.00
2014-9-11,91.8,80.7,72.6,78.8,73.7,70.3,98,81,53,30.04,29.94,11,2,15,0.04
2014-9-12,90.6,79.4,71.5,79.0,74.0,70.2,98,85,63,30.01,29.92,20,4,23,0.27
2014-9-13,90.3,80.4,72.9,76.5,74.0,70.6,97,82,54,30.09,29.96,14,2,15,0.03
2014-9-14,90.0,81.4,75.0,75.9,73.0,68.7,95,77,51,30.14,30.04,16,3,16,0.01
2014-9-15,91.5,80.0,73.6,76.9,73.5,71.3,95,82,54,30.16,30.07,13,2,13,0.04
2014-9-16,85.5,76.8,73.5,75.9,73.0,69.9,95,88,67,30.13,29.97,23,2,24,0.28
2014-9-17,86.3,77.7,72.3,75.1,72.5,70.7,96,85,66,29.97,29.84,9,1,9,0.00
2014-9-18,89.8,78.6,70.5,75.5,71.4,66.4,97,80,53,29.96,29.84,23,1,23,0.24
2014-9-19,80.7,74.7,70.2,76.9,72.0,67.6,96,91,76,29.99,29.90,17,2,20,0.11
2014-9-20,85.1,74.4,69.2,73.1,70.0,67.3,96,87,63,29.98,29.86,22,4,25,0.08
2014-9-21,88.0,77.5,67.7,74.8,69.2,66.0,96,78,53,30.02,29.93,8,2,12,0.00
2014-9-22,85.5,76.6,73.1,76.4,72.7,70.3,95,88,67,30.03,29.94,19,3,19,0.16
2014-9-23,82.2,74.9,71.0,75.4,71.6,69.3,97,90,75,30.04,29.95,15,4,18,0.34
2014-9-24,77.6,72.5,69.0,70.5,68.5,65.6,94,87,78,30.12,30.01,17,6,18,0.00
2014-9-25,83.2,73.2,66.7,74.8,68.9,65.0,95,87,74,30.13,30.01,14,6,15,0.00
2014-9-26,87.6,75.2,68.4,77.1,71.5,66.6,95,89,68,30.03,29.95,17,5,18,0.11
2014-9-27,87.3,76.9,74.3,78.1,73.8,72.4,96,90,69,30.02,29.97,17,4,20,0.16
2014-9-28,88.2,78.8,74.1,77.9,74.7,72.4,96,88,66,30.02,29.91,14,4,16,0.87
2014-9-29,82.5,74.9,72.4,77.8,73.0,70.7,97,94,83,29.99,29.82,16,1,16,1.35
2014-9-30,85.4,76.4,71.9,77.0,73.3,71.0,97,90,72,29.86,29.79,14,2,14,0.26
2014-10-1,88.0,78.3,73.3,77.2,73.4,70.8,93,86,63,29.99,29.84,13,3,13,0.00
2014-10-2,88.7,78.9,71.9,77.3,73.5,70.7,97,84,60,30.04,29.96,13,2,14,0.01
2014-10-3,90.4,79.1,71.9,76.9,73.3,70.4,97,84,57,30.03,29.91,18,3,18,0.09
2014-10-4,85.0,75.5,65.1,74.2,66.7,52.9,97,77,44,29.94,29.83,20,5,20,0.06
2014-10-5,76.5,64.2,50.5,54.9,48.3,41.1,89,59,30,30.06,29.94,17,3,18,0.00
2014-10-6,80.3,67.3,52.1,65.9,57.2,50.6,96,73,42,30.11,30.01,12,2,13,0.00
2014-10-7,84.5,75.5,66.7,71.2,67.8,64.0,93,78,58,30.11,30.03,14,2,14,0.00
2014-10-8,89.0,78.2,68.2,73.9,69.2,66.0,96,76,49,30.14,30.02,11,1,11,0.00
2014-10-9,88.8,77.3,66.7,73.3,68.6,65.2,97,77,51,30.12,30.01,15,2,15,0.00
2014-10-10,89.0,77.3,67.4,75.7,69.4,66.2,98,78,54,30.09,29.98,13,2,13,0.00
2014-10-11,89.0,76.0,63.5,74.5,68.6,62.3,98,80,52,30.06,29.97,11,1,11,0.00
2014-10-12,88.1,77.5,66.7,74.4,69.3,64.0,98,78,47,30.08,29.99,13,2,13,0.00
2014-10-13,88.2,78.0,68.7,73.7,69.4,63.4,97,77,46,30.10,29.98,22,5,22,0.01
2014-10-14,88.2,78.4,72.4,75.6,72.4,70.7,96,83,64,30.03,29.89,25,7,25,0.83
2014-10-15,81.0,72.6,61.3,72.4,65.4,55.9,96,80,45,29.98,29.90,19,5,19,0.23
2014-10-16,80.5,67.7,57.7,61.0,57.9,54.8,97,74,46,29.97,29.88,24,4,24,0.01
2014-10-17,80.2,66.8,53.6,59.9,55.8,52.2,95,71,42,30.02,29.93,10,2,10,0.00
2014-10-18,82.7,67.3,54.0,63.5,58.5,52.6,97,77,44,30.00,29.89,14,2,14,0.00
2014-10-19,82.4,69.7,59.5,66.3,61.9,58.6,97,78,53,30.06,29.95,14,3,14,0.00
2014-10-20,83.8,72.2,60.6,70.0,64.3,59.5,96,78,49,30.07,29.93,14,2,14,0.00
2014-10-21,82.6,72.8,66.6,71.3,67.3,63.5,97,84,55,29.98,29.89,11,1,11,0.00
2014-10-22,82.3,70.0,59.6,64.9,59.9,55.6,97,74,42,30.01,29.92,14,3,14,0.01
2014-10-23,79.3,67.2,55.0,59.9,55.3,50.8,88,68,43,30.03,29.92,18,5,18,0.00
2014-10-24,79.0,66.4,54.5,62.2,56.1,51.3,90,71,45,30.02,29.91,17,4,17,0.00
2014-10-25,78.5,64.6,52.5,57.2,52.2,46.8,94,69,34,30.01,29.93,15,2,15,0.00
2014-10-26,82.0,65.2,49.4,59.2,52.7,47.0,96,69,30,30.03,29.94,12,1,12,0.01
2014-10-27,84.4,68.2,52.7,67.3,58.7,51.6,97,75,42,30.11,30.01,14,1,14,0.00
2014-10-28,84.0,69.8,56.7,67.6,61.5,55.6,96,78,48,30.18,30.07,16,2,16,0.06
2014-10-29,84.7,72.0,59.9,69.4,63.8,59.0,98,78,46,30.11,29.98,12,2,12,0.00
2014-10-30,81.6,71.4,61.7,69.3,64.6,60.5,97,81,54,30.01,29.85,10,1,10,0.00
2014-10-31,75.8,67.1,57.0,63.7,55.2,45.9,92,68,37,29.90,29.79,17,4,17,0.00
2014-11-1,61.1,53.8,44.1,49.8,38.9,27.3,87,60,30,30.17,29.86,33,8,33,0.00
2014-11-2,66.8,48.5,36.4,41.9,37.3,0.0,94,69,31,30.33,30.17,15,3,15,0.00
2014-11-3,72.8,56.4,41.4,53.9,46.3,36.6,89,71,48,30.39,30.30,19,4,19,0.00
2014-11-4,79.3,64.7,51.2,60.8,55.5,49.1,94,75,45,30.33,30.19,19,3,19,0.02
2014-11-5,81.3,68.3,58.4,66.7,60.1,56.1,96,77,46,30.25,30.12,14,2,14,0.00
2014-11-6,83.3,69.3,57.2,66.4,60.3,55.8,97,76,46,30.17,29.97,20,3,20,0.00
2014-11-7,73.0,63.3,0.0,65.1,53.9,0.0,96,74,34,30.02,29.93,15,3,15,0.00
2014-11-8,71.5,59.5,48.6,59.3,54.0,46.6,94,83,61,30.00,29.87,13,3,13,0.23
2014-11-9,68.1,60.7,55.7,60.2,56.7,53.8,96,87,72,29.95,29.85,14,2,14,0.22
2014-11-10,73.0,62.1,54.1,63.5,58.0,52.8,96,87,66,29.98,29.92,16,3,16,0.03
2014-11-11,79.2,64.2,51.9,63.9,56.7,49.8,94,78,55,29.98,29.89,13,5,16,0.02
2014-11-12,76.8,61.5,47.4,54.8,50.3,45.3,95,70,36,30.08,29.96,11,1,11,0.00
2014-11-13,79.7,67.8,56.2,62.8,58.8,53.4,93,75,47,30.08,29.96,10,2,13,0.00
2014-11-14,69.4,60.4,48.8,62.5,50.7,39.7,95,73,40,30.18,30.00,11,3,14,0.00
2014-11-15,72.3,57.3,43.9,59.0,50.6,38.2,92,79,61,30.26,30.15,17,4,17,0.00
2014-11-16,81.2,65.2,50.9,65.8,58.9,49.5,96,82,57,30.22,30.03,18,2,18,0.00
2014-11-17,80.4,69.5,64.3,71.9,66.8,61.9,97,92,73,30.03,29.86,22,5,22,0.76
2014-11-18,66.1,48.5,41.3,64.6,37.6,28.1,95,67,41,30.34,29.99,20,6,20,0.07
2014-11-19,58.9,44.9,35.1,42.6,33.5,21.6,88,65,53,30.42,30.27,19,6,19,0.00
2014-11-20,62.9,48.5,35.3,41.8,33.3,25.4,89,61,27,30.32,30.20,14,3,14,0.00
2014-11-21,71.3,59.0,46.9,54.6,45.7,32.0,83,62,47,30.32,30.23,22,6,22,0.00
2014-11-22,70.0,65.3,58.5,66.0,62.1,53.7,95,90,82,30.27,30.08,17,5,17,0.16
2014-11-23,83.4,74.0,68.4,74.2,70.1,65.7,96,88,70,30.08,29.84,25,6,25,0.13
2014-11-24,86.9,76.9,70.8,74.7,71.1,67.9,96,83,61,30.01,29.88,21,5,21,0.00
2014-11-25,73.1,69.7,66.1,72.2,68.6,64.8,98,96,92,30.02,29.82,17,3,17,3.68
2014-11-26,69.7,56.3,46.0,69.1,52.1,43.3,98,87,56,30.22,29.80,25,5,25,0.38
2014-11-27,67.5,52.9,40.6,54.0,40.9,33.7,100,68,33,30.31,30.17,22,4,22,0.01
2014-11-28,59.2,47.9,38.4,42.0,37.5,32.8,85,69,42,30.36,30.26,16,5,16,0.00
2014-11-29,69.9,54.7,40.2,56.0,46.7,37.1,93,76,48,30.34,30.25,11,2,11,0.00
2014-11-30,75.7,60.7,47.0,61.0,53.6,45.7,97,80,51,30.35,30.26,14,2,14,0.00
2014-12-1,78.5,65.6,53.3,64.4,59.3,51.9,97,81,56,30.36,30.22,15,3,15,0.01
2014-12-2,80.7,67.3,58.2,67.0,61.9,57.1,97,84,55,30.26,30.14,18,3,18,0.03
2014-12-3,80.3,68.1,58.9,66.6,62.0,57.7,97,83,51,30.22,30.12,16,3,16,0.01
2014-12-4,80.0,67.9,58.5,66.7,62.0,57.3,98,83,52,30.24,30.15,18,4,18,0.00
2014-12-5,76.9,69.0,63.3,68.5,65.1,61.8,96,88,74,30.27,30.19,13,4,13,0.01
2014-12-6,81.5,70.1,64.1,69.9,65.3,63.2,98,86,58,30.24,30.10,12,3,12,0.01
2014-12-7,67.0,62.7,57.2,63.6,59.6,53.6,96,90,80,30.14,30.07,20,6,20,0.00
2014-12-8,60.9,57.8,51.9,58.1,54.7,49.1,92,89,85,30.14,30.06,20,7,20,0.00
2014-12-9,63.5,53.5,45.4,49.3,45.9,42.9,93,77,48,30.11,30.00,20,5,20,0.00
2014-12-10,63.5,49.4,37.6,43.9,40.5,36.0,96,74,41,30.16,30.05,12,2,12,0.01
2014-12-11,61.9,47.5,36.6,47.3,41.5,35.0,96,81,55,30.22,30.11,17,3,17,0.00
2014-12-12,64.1,49.6,40.3,41.8,39.0,34.4,93,71,33,30.30,30.18,11,1,11,0.01
2014-12-13,69.3,49.7,34.4,47.8,37.6,32.6,97,70,26,30.23,30.09,10,1,11,0.00
2014-12-14,71.9,51.7,36.2,46.9,37.9,33.0,96,66,25,30.13,30.03,11,1,11,0.00
2014-12-15,71.3,50.8,37.9,54.6,42.3,36.6,97,77,30,30.16,30.06,9,1,9,0.00
2014-12-16,75.0,57.3,40.7,59.6,51.2,39.6,97,82,45,30.20,30.11,13,3,15,0.04
2014-12-17,72.3,59.1,47.3,57.4,49.3,43.0,96,73,41,30.22,30.09,12,2,12,0.00
2014-12-18,69.5,54.2,41.4,51.1,45.9,39.7,97,76,45,30.20,30.09,8,1,12,0.00
2014-12-19,71.1,56.9,47.8,51.9,45.0,29.9,96,69,23,30.16,30.05,9,1,9,0.00
2014-12-20,73.8,61.6,48.7,62.3,55.9,46.5,97,83,64,30.13,30.03,11,1,11,0.05
2014-12-21,70.6,64.4,60.5,65.3,62.5,59.4,97,94,82,30.11,29.99,11,2,11,0.62
2014-12-22,77.2,70.1,63.6,70.8,66.9,62.7,98,90,78,30.05,29.87,16,4,16,1.04
2014-12-23,78.9,71.7,67.3,71.0,68.0,65.8,97,89,73,29.97,29.85,18,5,18,0.01
2014-12-24,81.7,72.7,63.4,72.8,68.1,61.2,94,86,72,29.97,29.78,20,8,29,0.47
2014-12-25,63.4,57.1,47.8,61.2,51.4,46.2,95,81,66,30.25,29.95,15,3,15,0.00
2014-12-26,68.7,57.2,44.6,60.5,53.4,43.5,97,88,72,30.27,30.18,13,2,13,0.02
2014-12-27,79.0,67.1,57.1,68.5,62.4,55.7,97,86,62,30.28,30.14,10,2,10,0.02
2014-12-28,80.7,69.8,61.7,71.9,65.9,59.7,97,88,65,30.17,30.07,12,2,12,0.01
2014-12-29,80.0,67.8,59.1,69.8,63.5,57.9,98,87,65,30.15,30.03,18,2,18,0.01
2014-12-30,72.0,67.1,61.0,68.3,64.1,57.1,97,90,79,30.27,30.07,15,3,15,0.04
2014-12-31,61.2,58.6,55.9,57.5,54.9,52.4,92,87,83,30.33,30.21,22,8,22,0.00
2015-1-1,68.2,60.6,54.3,62.5,56.6,51.3,91,87,79,30.30,30.16,15,5,15,0.00
2015-1-2,75.8,65.6,57.9,68.5,62.5,56.7,97,90,77,30.28,30.18,11,3,11,0.00